TimeCST,TemperatureF,Dew PointF,Humidity,Sea Level PressureIn,VisibilityMPH,Wind Direction,Wind SpeedMPH,Gust SpeedMPH,PrecipitationIn,Events,Conditions,WindDirDegrees,DateUTC
12:52 AM,50.0,45.0,83,30.26,10.0,North,6.9,-,N/A,,Overcast,360,2012-12-05 06:52:00
1:52 AM,48.0,44.1,86,30.27,10.0,North,5.8,-,N/A,,Overcast,10,2012-12-05 07:52:00
2:52 AM,48.0,44.1,86,30.27,10.0,NNE,6.9,-,N/A,,Mostly Cloudy,20,2012-12-05 08:52:00
3:52 AM,46.9,43.0,86,30.27,10.0,North,4.6,-,N/A,,Overcast,10,2012-12-05 09:52:00
4:52 AM,46.0,42.1,86,30.30,10.0,NNE,4.6,-,N/A,,Overcast,20,2012-12-05 10:52:00
5:52 AM,44.1,41.0,89,30.32,10.0,NNE,3.5,-,N/A,,Overcast,20,2012-12-05 11:52:00
6:52 AM,41.0,39.0,93,30.32,10.0,NNE,4.6,-,N/A,,Clear,20,2012-12-05 12:52:00
8:52 AM,50.0,43.0,77,30.34,10.0,ENE,6.9,-,N/A,,Clear,60,2012-12-05 14:52:00
9:52 AM,53.1,43.0,69,30.34,10.0,ENE,6.9,-,N/A,,Clear,60,2012-12-05 15:52:00
10:52 AM,57.0,41.0,55,30.32,10.0,ENE,9.2,-,N/A,,Clear,60,2012-12-05 16:52:00
11:52 AM,59.0,41.0,51,30.29,10.0,ENE,6.9,-,N/A,,Clear,60,2012-12-05 17:52:00
12:52 PM,60.1,37.9,44,30.27,10.0,ENE,9.2,-,N/A,,Clear,60,2012-12-05 18:52:00
1:52 PM,61.0,35.1,38,30.24,10.0,NE,10.4,-,N/A,,Clear,40,2012-12-05 19:52:00
2:52 PM,60.1,33.1,36,30.24,10.0,NE,8.1,-,N/A,,Clear,40,2012-12-05 20:52:00
3:52 PM,57.0,35.1,44,30.23,10.0,ENE,5.8,-,N/A,,Clear,70,2012-12-05 21:52:00
4:52 PM,54.0,34.0,47,30.23,10.0,ENE,4.6,-,N/A,,Clear,70,2012-12-05 22:52:00
5:52 PM,51.1,35.1,54,30.22,10.0,ENE,4.6,-,N/A,,Clear,60,2012-12-05 23:52:00
6:52 PM,48.9,34.0,56,30.21,10.0,ENE,4.6,-,N/A,,Clear,60,2012-12-06 00:52:00
7:52 PM,46.9,33.1,59,30.20,10.0,NE,5.8,-,N/A,,Clear,50,2012-12-06 01:52:00
8:52 PM,46.0,34.0,63,30.19,10.0,ENE,6.9,-,N/A,,Clear,60,2012-12-06 02:52:00
9:52 PM,44.1,34.0,68,30.18,10.0,ENE,5.8,-,N/A,,Clear,70,2012-12-06 03:52:00
10:52 PM,44.1,33.1,65,30.17,10.0,East,5.8,-,N/A,,Clear,80,2012-12-06 04:52:00
11:52 PM,43.0,34.0,71,30.15,10.0,East,5.8,-,N/A,,Clear,80,2012-12-06 05:52:00